AD5L Weather Reports


time (UTC)temp
C
wind
direction
speed
KPH
gust
KPH
rain 1hr
cm
rain 24hr
cm
rain mn
cm
humidity
%
barometer
mb
20260506200336 15 20 11.3 24.1 0.00 0.00 0.00 87 1013.2
20260506195326 16 322 12.9 25.7 0.00 0.00 0.00 87 1013.4
20260506194338 16 348 16.1 27.4 0.00 0.00 0.00 87 1013.3
20260506193329 16 319 11.3 24.1 0.00 0.00 0.00 86 1013.2
20260506192340 17 342 11.3 24.1 0.00 0.00 0.00 85 1013.4
20260506191328 17 321 12.9 22.5 0.00 0.00 0.00 85 1013.4
20260506190336 17 328 8.0 17.7 0.00 0.00 0.00 86 1013.2
20260506185329 18 342 6.4 19.3 0.00 0.00 0.00 87 1013.1
20260506184335 18 318 11.3 22.5 0.00 0.00 0.00 86 1013.0
20260506183326 18 5 14.5 27.4 0.00 0.00 0.00 86 1013.1
20260506182336 20 353 12.9 24.1 0.00 0.00 0.00 82 1013.1
20260506181346 20 327 12.9 19.3 0.00 0.00 0.00 82 1012.9
20260506180337 20 13 8.0 19.3 0.00 0.00 0.00 83 1012.7
20260506175348 20 33 9.7 16.1 0.00 0.00 0.00 84 1012.8
20260506174331 19 338 6.4 12.9 0.00 0.00 0.00 87 1012.6
20260506173322 19 30 6.4 9.7 0.00 0.00 0.00 85 1012.6
20260506172333 18 65 6.4 12.9 0.00 0.00 0.00 87 1012.5
20260506171324 18 61 6.4 14.5 0.00 0.00 0.00 89 1012.4
20260506170335 18 96 6.4 14.5 0.00 0.00 0.00 87 1012.4
20260506165325 17 37 11.3 19.3 0.00 0.00 0.00 89 1012.5
20260506164337 17 80 6.4 12.9 0.00 0.00 0.00 91 1012.5
20260506163328 16 33 8.0 16.1 0.00 0.00 0.00 91 1012.9
20260506162338 16 84 4.8 16.1 0.00 0.00 0.00 95 1013.1
20260506161328 15 60 6.4 19.3 0.00 0.00 0.00 94 1012.8
20260506160337 15 11 12.9 20.9 0.00 0.00 0.00 94 1013.8
20260506155327 15 16 16.1 27.4 0.00 0.00 0.00 95 1014.0
20260506154338 15 350 16.1 29.0 0.00 0.00 0.00 94 1014.3
20260506153328 16 360 8.0 19.3 0.00 0.00 0.00 96 1014.3
20260506152339 16 330 11.3 32.2 0.00 0.00 0.00 95 1013.7
20260506151330 16 329 16.1 25.7 0.00 0.00 0.00 95 1013.8
20260506150341 17 15 11.3 20.9 0.00 0.00 0.00 94 1013.2
20260506145333 17 2 1.6 11.3 0.00 0.00 0.00 95 1012.5
20260506144343 17 13 9.7 29.0 0.00 0.00 0.00 95 1012.1
20260506143325 17 20 16.1 30.6 0.00 0.00 0.00 94 1012.3
20260506142331 18 317 11.3 22.5 0.00 0.00 0.00 94 1011.9
20260506141349 18 313 9.7 19.3 0.00 0.00 0.00 94 1011.4
20260506140331 19 23 3.2 20.9 0.00 0.00 0.00 94 1011.2
20260506135322 20 325 9.7 25.7 0.00 0.00 0.00 93 1011.4
20260506134332 22 11 17.7 27.4 0.00 0.00 0.00 94 1010.9
20260506133323 23 88 1.6 4.8 0.00 0.00 0.00 97 1010.3
20260506132333 23 88 1.6 6.4 0.00 0.00 0.00 97 1010.5
20260506131323 23 96 1.6 4.8 0.00 0.00 0.00 98 1010.4
20260506130335 23 103 0.0 4.8 0.00 0.00 0.00 98 1010.0
20260506125326 23 100 0.0 3.2 0.00 0.00 0.00 98 1009.9
20260506124337 22 140 0.0 1.6 0.00 0.00 0.00 98 1009.8
20260506123330 22 140 0.0 1.6 0.00 0.00 0.00 98 1009.8
20260506122340 22 140 0.0 1.6 0.00 0.00 0.00 98 1009.6
20260506121332 22 140 0.0 1.6 0.00 0.00 0.00 98 1009.6
20260506120342 22 140 0.0 1.6 0.00 0.00 0.00 97 1009.5
20260506115334 22 140 0.0 1.6 0.00 0.00 0.00 97 1009.4
20260506114345 22 140 0.0 1.6 0.00 0.00 0.00 97 1009.4
20260506113332 22 140 0.0 1.6 0.00 0.00 0.00 97 1009.5
20260506112344 22 140 0.0 1.6 0.00 0.00 0.00 96 1009.6
20260506111326 23 140 0.0 3.2 0.00 0.00 0.00 96 1009.5
20260506110346 23 196 0.0 4.8 0.00 0.00 0.00 96 1009.5
20260506105328 23 148 0.0 4.8 0.00 0.00 0.00 96 1009.4
20260506104338 23 144 0.0 4.8 0.00 0.00 0.00 96 1009.5
20260506103329 23 141 0.0 1.6 0.00 0.00 0.00 96 1009.4
20260506102340 23 141 0.0 1.6 0.00 0.00 0.00 96 1009.2
20260506101330 23 140 0.0 3.2 0.00 0.00 0.00 96 1009.2
20260506100337 23 133 0.0 3.2 0.00 0.00 0.00 95 1009.1
20260506095329 23 162 0.0 6.4 0.00 0.00 0.00 95 1009.0
20260506094341 23 146 3.2 8.0 0.00 0.00 0.00 94 1008.8
20260506093332 23 145 1.6 8.0 0.00 0.00 0.00 93 1008.7
20260506092340 23 107 1.6 4.8 0.00 0.00 0.00 93 1008.6
20260506091330 23 134 1.6 6.4 0.00 0.00 0.00 92 1008.7
20260506090341 23 123 0.0 6.4 0.00 0.00 0.00 92 1008.7
20260506085332 23 129 1.6 8.0 0.00 0.00 0.00 92 1008.6
20260506084343 24 131 4.8 14.5 0.00 0.00 0.00 92 1008.6
20260506083334 24 152 1.6 11.3 0.00 0.00 0.00 92 1008.6
20260506082346 23 158 1.6 8.0 0.00 0.00 0.00 92 1008.5
20260506081337 24 198 3.2 9.7 0.00 0.00 0.00 92 1008.5
20260506080347 24 182 3.2 11.3 0.00 0.00 0.00 92 1008.6
20260506073331 24 167 6.4 19.3 0.00 0.00 0.00 91 1008.6
20260506072323 24 124 8.0 17.7 0.00 0.00 0.00 91 1008.6
20260506071333 24 182 11.3 22.5 0.00 0.00 0.00 92 1008.6
20260506070324 24 191 3.2 17.7 0.00 0.00 0.00 92 1008.6
20260506062324 24 103 8.0 16.1 0.00 0.00 0.00 92 1008.5
20260506061334 24 126 4.8 19.3 0.00 0.00 0.00 92 1008.4
20260506060325 24 157 4.8 12.9 0.00 0.00 0.00 92 1008.5
20260506051337 24 140 4.8 14.5 0.00 0.00 0.00 92 1008.5
20260506050350 24 157 8.0 16.1 0.00 0.00 0.00 92 1008.6
20260506044339 24 186 6.4 16.1 0.00 0.00 0.00 92 1008.5
20260506043350 24 108 6.4 16.1 0.00 0.00 0.00 92 1008.6
20260506042340 24 157 3.2 11.3 0.00 0.00 0.00 91 1008.4
20260506041323 24 164 4.8 12.9 0.00 0.00 0.00 91 1008.4
20260506040344 24 160 1.6 8.0 0.00 0.00 0.00 91 1008.5
20260506035325 25 163 1.6 8.0 0.00 0.00 0.00 90 1008.3
20260506034337 25 142 1.6 11.3 0.00 0.00 0.00 89 1008.1
20260506033328 25 125 3.2 11.3 0.00 0.00 0.00 88 1007.9
20260506032339 25 127 3.2 12.9 0.00 0.00 0.00 87 1008.0
20260506031329 25 179 4.8 14.5 0.00 0.00 0.00 87 1007.8
20260506030340 25 150 4.8 9.7 0.00 0.00 0.00 86 1007.6
20260506025330 25 134 3.2 9.7 0.00 0.00 0.00 86 1007.5
20260506024340 25 175 1.6 9.7 0.00 0.00 0.00 86 1007.5
20260506023331 26 153 1.6 8.0 0.00 0.00 0.00 85 1007.3
20260506022322 26 161 1.6 11.3 0.00 0.00 0.00 85 1007.0
20260506021334 26 134 1.6 6.4 0.00 0.00 0.00 85 1006.9
20260506020325 26 139 1.6 6.4 0.00 0.00 0.00 84 1006.7
20260506015336 26 149 0.0 6.4 0.00 0.00 0.00 84 1006.8
20260506014330 26 139 0.0 6.4 0.00 0.00 0.00 83 1006.6
20260506013339 26 103 1.6 8.0 0.00 0.00 0.00 82 1006.5
20260506012346 26 131 3.2 11.3 0.00 0.00 0.00 81 1006.4
20260506011325 27 151 3.2 8.0 0.00 0.00 0.00 80 1006.3
20260506010344 27 126 4.8 11.3 0.00 0.00 0.00 78 1006.3
20260506005326 27 146 4.8 11.3 0.00 0.00 0.00 77 1006.3
20260506004337 28 150 6.4 12.9 0.00 0.00 0.00 76 1006.3
20260506003325 28 205 4.8 17.7 0.00 0.00 0.00 76 1006.2
20260506002336 28 233 6.4 14.5 0.00 0.00 0.00 75 1006.3
20260506001327 28 124 8.0 11.3 0.00 0.00 0.00 76 1006.3
20260506000339 28 91 4.8 12.9 0.00 0.00 0.00 76 1006.2
20260505235328 28 181 1.6 11.3 0.00 0.00 0.00 75 1006.3
20260505234340 28 129 4.8 12.9 0.00 0.00 0.00 75 1006.2
20260505233330 28 123 6.4 16.1 0.00 0.00 0.00 74 1006.1
20260505232341 28 243 6.4 16.1 0.00 0.00 0.00 73 1006.1
20260505231330 29 172 6.4 11.3 0.00 0.00 0.00 73 1006.0
20260505230339 29 207 8.0 14.5 0.00 0.00 0.00 72 1005.9
20260505225330 29 126 4.8 16.1 0.00 0.00 0.00 73 1005.8
20260505224337 29 193 8.0 20.9 0.00 0.00 0.00 73 1005.7
20260505223328 29 127 6.4 24.1 0.00 0.00 0.00 73 1005.9
20260505222335 29 214 8.0 22.5 0.00 0.00 0.00 72 1005.7
20260505221326 29 162 8.0 20.9 0.00 0.00 0.00 72 1005.7
20260505220338 30 127 8.0 17.7 0.00 0.00 0.00 71 1005.8
20260505215348 30 221 8.0 19.3 0.00 0.00 0.00 71 1005.8
20260505214339 30 116 11.3 24.1 0.00 0.00 0.00 71 1006.0
20260505213350 30 154 8.0 19.3 0.00 0.00 0.00 71 1005.9
20260505212331 30 121 6.4 19.3 0.00 0.00 0.00 70 1006.2
20260505211322 30 245 9.7 22.5 0.00 0.00 0.00 71 1006.4
20260505210329 30 245 6.4 17.7 0.00 0.00 0.00 72 1006.5
20260505205339 30 109 9.7 25.7 0.00 0.00 0.00 72 1006.5
20260505204331 30 179 6.4 20.9 0.00 0.00 0.00 72 1006.7
20260505203322 29 115 11.3 20.9 0.00 0.00 0.00 72 1006.6
20260505202334 30 129 9.7 19.3 0.00 0.00 0.00 71 1006.9
20260505201324 30 217 8.0 17.7 0.00 0.00 0.00 69 1007.0